Showing default

ORBCOMM FM 15, 25418

Orbit data source: Space-Track

ORBCOMM FM 15, 25418 is a payload satellite owned by Orbcomm (US) in LEO that was launched on Sun, 02 Aug 1998 UTC via a PEGASUS XL/HAPS launch vehicle from the Pegasus Launch, Eastern Range Air Space (ERAS). Payload-class satellites include a variety of spacecraft equipped with specific instruments for various scientific and technological missions. These include communications satellites like Starlink; space stations such as the ISS; scientific satellites like the Hubble; Earth observation satellites from companies like Planet Labs, Umbra, and HawkEye 360; GPS; miniature CubeSats for education and research; and military/defense satellites.

Loading next visibility...
Identifier
25418, 1998-046F
Orbit
LEO
Country
Flag of USUS / ORB
Related business
Manufacturer
OSC-Germantown
Mission
Non-operational Commercial Communications
Bus & Motor
MICROSTAR, Unknown motor
Mass
42 kg wet, 42 kg dry
Launch date (UTC)
1998-08-02 (27 years ago)
Launch vehicle
PEGASUS XL/HAPS
Launch site
Pegasus Launch, Eastern Range Air Space (ERAS)
Object type
Payload
Rocket body
Debris
Shape & HBR
Cyl + 2 Pan, 2.1 m
Radar Cross Section
1.484 m², Medium (>0.1 m² and < 1m²)

Expand to show TLE details & history
Last TLE update: 15 hours ago

TLE from 15 hours ago
0 ORBCOMM FM 15
1 25418U 98046F   25243.22792088  .00001969  00000-0  68152-3 0  9991
2 25418  44.9960 181.8095 0006127 320.3667  39.6733 14.38718819415055
Epoch: 2025-08-31T05:28Z
TLE epoch observation values (Epoch: 2025-08-31T05:28:12.364Z)
Latitude
-0°
Longitude
120.1071°
Altitude
759.367 km
Speed
7.478 km/s
True Right ascension
12h 07m 14s
True Declination
0° 00' 00"
Sunlit
Object was in daylight at epoch
Visualization orbit readout
Latitude
Unknown
Longitude
Unknown
Altitude
Unknown
Speed
Unknown
Apparent Right ascension
Unknown
Apparent Declination
Unknown
Sunlit
N/A
Visualization observer readout
Local Sidereal Time
12:34:23
Azimuth
Unknown
Elevation
Unknown
Doppler factor
Unknown
Orbital elements
Apogee altitude
768.658 km
Perigee altitude
759.906 km
Semi-major axis
7,142.419 km
Eccentricity
0.00061
Inclination
44.996°
RAAN
181.8095°
Arg. of periapsis
320.3667°
True anomaly
39.71815°
Mean anomaly
39.6733°
Eccentric anomaly
39.69572°
Mean motion
3.59563 °/min
Orbital period
100.12 mins
BSTAR
0.00068152
Loading maneuver chart data...
Computing Atmospheric mass density...

Documentation

Showing up to 5 results
|